Location: Ergnies
(50.0854°N, 2.0375°E)
Time: 08:51:32
(UTC+00:00)

SJ 16-02 - Pass Details

Date: 14 January 2026
Orbit: 582 x 594 km, 75.0° (Epoch: 18 February)

Event Time Altitude Azimuth Distance (km) Brightness Sun altitude
Rises 06:14:09 0° 160° (SSE) 2,793 5.3 -14.1°
Reaches altitude 10° 06:16:51 10° 142° (SE) 1,899 4.7 -13.7°
Maximum altitude 06:19:49 19° 98° (E) 1,416 4.3 -13.2°
Drops below altitude 10° 06:22:49 10° 53° (NE) 1,911 4.4 -12.8°
Sets 06:25:32 0° 35° (NE) 2,818 5.0 -12.4°
